Regional Weather Roundup
Issued by NWS

Home | Current Version | Previous Version | Text Only | Print | Product List | Glossary Off
Versions: 1 2 3 4 5 6 7 8 9 10 11 12 13 14 15 16 17 18 19 20 21 22 23 24 25 26 27 28 29 30 31 32 33 34 35 36 37 38 39 40 41 42 43 44 45 46 47 48 49 50

000
ASUS43 KDTX 250410
RWRMI
MICHIGAN HOURLY REGIONAL WEATHER ROUNDUP
NATIONAL WEATHER SERVICE DETROIT/PONTIAC MI
1200 AM EDT FRI APR 25 2014

NOTE: "FAIR" INDICATES FEW OR NO CLOUDS BELOW 12,000 FEET WITH NO
SIGNIFICANT WEATHER AND/OR OBSTRUCTION TO VISIBILITY.

MIZ047>049-052>055-059>063-066>070-074>076-081>083-250500-
SOUTHEAST LOWER MICHIGAN

CITY           SKY/WX    TMP DP  RH WIND       PRES   REMARKS
ADRIAN         CLOUDY    45  28  51 SE10      29.86F
ALMA           CLOUDY    48  18  29 SE6       29.89S
ANN ARBOR      CLOUDY    45  19  35 E8        29.87F
BAD AXE        CLOUDY    42  25  49 E5        29.91F
CARO           CLOUDY    45  24  44 E6        29.89F
DETROIT CITY   MOCLDY    47  24  40 SE17      29.89F
DETROIT        MOCLDY    46  20  35 E12       29.88F
FLINT          MOCLDY    48  23  37 E10       29.86F
GROSSE ILE     MOCLDY    45  19  36 E9        29.86F
HILLSDALE      MOCLDY    45  25  45 E12       29.83S
HOWELL         CLOUDY    47  19  33 SE10      29.85R

CITY           SKY/WX    TMP DP  RH WIND       PRES   REMARKS
JACKSON        MOCLDY    44  24  45 SE12      29.86R
LAMBERTVILLE   MOCLDY    46  28  49 E6        29.86F
LANSING        MOCLDY    48  19  31 SE9       29.87S
LAPEER         FAIR      42  26  51 E6        29.89F
MASON          MOCLDY    45  22  39 CALM      29.88R
MONROE         MOCLDY    46  28  49 E12G23    29.85S
MT. CLEMENS    CLOUDY    44  29  54 E13       29.89F
PONTIAC        CLOUDY    46  19  34 E13G26    29.85F
PORT HOPE        N/A     41  31  67 E20       29.90F
PORT HURON     CLOUDY    45  23  42 E12G17    29.92F
TRI CITIES     CLOUDY    45  24  43 E12       29.89F
TROY           MOCLDY    46  21  36 E10       29.89F
SAGINAW HB     MOCLDY    45  23  42 E10       29.89F
YPSILANTI      CLOUDY    48  19  31 E13G20    29.87F
$$
MIZ043>046-050>051-056>058-064>065-071>073-077>080-250500-
SOUTHWEST LOWER MICHIGAN

CITY           SKY/WX    TMP DP  RH WIND       PRES   REMARKS
BATTLE CREEK   CLOUDY    46  23  40 SE9       29.82F
BENTON HARBOR  CLOUDY    51  30  44 SE15      29.75F
BIG RAPIDS     CLOUDY    49  22  34 SE14G20   29.82F
COLDWATER      CLOUDY    44  24  45 E7        29.81F
FREMONT        CLOUDY    49  17  27 SE10G20   29.80F
HOLLAND        CLOUDY    50  27  40 E13       29.79F
GRAND RAPIDS   CLOUDY    48  22  35 E14       29.82F
IONIA          FAIR      46  20  35 E12       29.84F
KALAMAZOO      CLOUDY    48  26  42 E10       29.80F
LUDINGTON      RAIN      49  29  45 SE9       29.80F
MARSHALL       MOCLDY    43  24  47 E6        29.82F
MOUNT PLEASANT CLOUDY    47  25  42 E8        29.89R
MUSKEGON       CLOUDY    50  19  29 E16       29.78F
SOUTH HAVEN    CLOUDY    50  27  40 SE13G23   29.76F
$$
MIZ016>042-250500-
NORTHERN LOWER MICHIGAN

CITY           SKY/WX    TMP DP  RH WIND       PRES   REMARKS
ALPENA         CLOUDY    40  22  48 E9        29.94F WCI  34
BEAVER ISLAND  CLOUDY    39  27  61 E12G18    29.90F WCI  32
BELLAIRE       CLOUDY    46  13  27 SE7       29.88R
CADILLAC       CLOUDY    42  24  47 E14G20    29.84S
CHARLEVOIX     CLOUDY    44  18  35 E6        29.92R
FRANKFORT      CLOUDY    48  24  39 SE7       29.84R
GAYLORD        CLOUDY    41  14  33 E9G22     29.87F
GRAYLING       CLOUDY    40  13  32 E10       29.89S WCI  34
HARBOR SPRINGS CLOUDY    45  16  31 E8        29.90R
HOUGHTON LAKE  CLOUDY    41  18  39 SE12G21   29.88F
MANISTEE       CLOUDY    48  27  43 SE10      29.82S
OSCODA         MOCLDY    42  22  44 E14       29.92F
PELLSTON       CLOUDY    44  15  31 E13G22    29.91F
ROGERS CITY    CLOUDY    40  25  56 E10       29.94F WCI  33
TRAVERSE CITY  CLOUDY    46  16  30 E9        29.86R
$$
MIZ007>008-015-250500-
EASTERN UPPER MICHIGAN

CITY           SKY/WX    TMP DP  RH WIND       PRES   REMARKS
KINROSS        CLOUDY    36  36 100 E12       29.97F WCI  27
MACKINAC ISLAN CLOUDY    37  25  62 E10G18    29.92F WCI  30
NEWBERRY       CLOUDY    32  32 100 NE9       29.95F WCI  24
S. S. MARIE    CLOUDY    40  23  50 E8G17     29.98F WCI  34
MUNISING         N/A     37  32  82 E14G25    29.89F WCI  28
$$
MIZ004>006-011>014-085-250500-
CENTRAL UPPER MICHIGAN

CITY           SKY/WX    TMP DP  RH WIND       PRES   REMARKS
MANISTIQUE     CLOUDY    37  32  81 E8G20     29.90S WCI  31
ESCANABA       CLOUDY    39  28  65 E18G24    29.83F WCI  30
MENOMINEE      CLOUDY    37  34  87 E5        29.80F WCI  34
SAWYER-GWINN   FLURRIES  34  33  94 E9G16     29.83F WCI  27
$$
MIZ001>003-009>011-084-250500-
WESTERN UPPER MICHIGAN

CITY           SKY/WX    TMP DP  RH WIND       PRES   REMARKS
IRON MOUNTAIN  LGT RAIN  37  34  89 SE9       29.78F WCI  30
HOUGHTON       SNOW      32  30  92 E20G31    29.80F VSB 1/2 WCI  20
COPPER HARBOR    N/A     34  32  92 S10G25    29.87F WCI  26
IRONWOOD       CLOUDY    36  32  87 SE13G20   29.66  WCI  27
$$

ABBREVIATIONS USED IN REMARKS
   TC - TEMPERATURE IN CELSIUS
  WCI - WIND CHILL INDEX
   HX - HEAT INDEX
  VSB - VISIBILITY




USA.gov is the U.S. government's official web portal to all federal, state and local government web resources and services.